Time,TemperatureF,DewpointF,PressureIn,WindDirection,WindDirectionDegrees,WindSpeedMPH,WindSpeedGustMPH,Humidity,HourlyPrecipIn,Conditions,Clouds,dailyrainin,SoftwareType,DateUTC
2013-10-27 00:02:00,48.2,46.6,30.15,North,5,0.0,0.0,94,0.00,,SKC,0.00,WeatherDisplay:10.37,2013-10-27 07:02:00,
2013-10-27 00:07:00,48.2,46.8,30.15,North,5,0.0,0.0,95,0.00,,SKC,0.00,WeatherDisplay:10.37,2013-10-27 07:07:00,
2013-10-27 00:12:00,48.2,46.6,30.16,North,5,0.0,0.0,94,0.00,,SKC,0.00,WeatherDisplay:10.37,2013-10-27 07:12:00,
2013-10-27 00:17:00,48.1,46.7,30.16,North,5,0.0,0.0,95,0.00,,SKC,0.00,WeatherDisplay:10.37,2013-10-27 07:17:00,
2013-10-27 00:22:00,48.1,46.7,30.16,North,5,0.0,0.0,95,0.00,,SKC,0.00,WeatherDisplay:10.37,2013-10-27 07:22:00,
2013-10-27 00:27:00,48.1,46.7,30.16,North,5,0.0,0.0,95,0.00,,SKC,0.00,WeatherDisplay:10.37,2013-10-27 07:27:00,
2013-10-27 00:32:00,48.2,46.8,30.16,North,5,0.0,0.0,95,0.00,,SKC,0.00,WeatherDisplay:10.37,2013-10-27 07:32:00,
2013-10-27 00:37:00,48.2,46.8,30.15,North,5,0.0,0.0,95,0.00,CLR,SKC,0.00,WeatherDisplay:10.37,2013-10-27 07:37:00,
2013-10-27 00:42:00,48.3,46.9,30.15,North,5,0.0,0.0,95,0.00,,SKC,0.00,WeatherDisplay:10.37,2013-10-27 07:42:00,
2013-10-27 00:47:00,48.3,46.9,30.14,North,5,0.0,0.0,95,0.00,,SKC,0.00,WeatherDisplay:10.37,2013-10-27 07:47:00,
2013-10-27 00:52:00,48.3,46.7,30.15,North,5,0.0,0.0,94,0.00,,SKC,0.00,WeatherDisplay:10.37,2013-10-27 07:52:00,
2013-10-27 00:57:00,48.3,46.7,30.15,North,5,0.0,0.0,94,0.00,,SKC,0.00,WeatherDisplay:10.37,2013-10-27 07:57:00,
2013-10-27 01:02:00,48.3,46.7,30.15,North,5,0.0,0.0,94,0.00,,SKC,0.00,WeatherDisplay:10.37,2013-10-27 08:02:00,
2013-10-27 01:07:00,48.3,46.7,30.15,North,5,0.0,0.0,94,0.00,,SKC,0.00,WeatherDisplay:10.37,2013-10-27 08:07:00,
2013-10-27 01:12:00,48.3,46.7,30.15,North,5,1.0,1.0,94,0.00,CLR,SKC,0.00,WeatherDisplay:10.37,2013-10-27 08:12:00,
2013-10-27 01:17:00,48.3,46.7,30.15,North,5,1.0,1.0,94,0.00,,SKC,0.00,WeatherDisplay:10.37,2013-10-27 08:17:00,
2013-10-27 01:22:00,48.4,46.8,30.15,North,9,0.0,0.0,94,0.00,,SKC,0.00,WeatherDisplay:10.37,2013-10-27 08:22:00,
2013-10-27 01:27:00,48.4,46.8,30.16,North,9,1.1,1.1,94,0.00,,SKC,0.00,WeatherDisplay:10.37,2013-10-27 08:27:00,
2013-10-27 01:32:00,48.5,46.6,30.15,North,9,1.1,1.1,93,0.00,,SKC,0.00,WeatherDisplay:10.37,2013-10-27 08:32:00,
2013-10-27 01:37:00,48.5,46.6,30.16,North,9,1.1,0.0,93,0.00,,SKC,0.00,WeatherDisplay:10.37,2013-10-27 08:37:00,
2013-10-27 01:42:00,48.5,46.6,30.16,North,9,1.0,0.0,93,0.00,,SKC,0.00,WeatherDisplay:10.37,2013-10-27 08:42:00,
2013-10-27 01:47:00,48.5,46.6,30.16,North,9,1.1,0.0,93,0.00,CLR,SKC,0.00,WeatherDisplay:10.37,2013-10-27 08:47:00,
2013-10-27 01:52:00,48.5,46.6,30.15,North,9,0.0,0.0,93,0.00,,SKC,0.00,WeatherDisplay:10.37,2013-10-27 08:52:00,
2013-10-27 01:57:00,48.5,46.6,30.15,North,9,0.0,0.0,93,0.00,,SKC,0.00,WeatherDisplay:10.37,2013-10-27 08:57:00,
2013-10-27 02:02:00,48.5,46.6,30.15,North,9,0.0,0.0,93,0.00,,SKC,0.00,WeatherDisplay:10.37,2013-10-27 09:02:00,
2013-10-27 02:07:00,48.5,46.3,30.15,North,9,1.1,0.0,92,0.00,,SKC,0.00,WeatherDisplay:10.37,2013-10-27 09:07:00,
2013-10-27 02:12:00,48.5,46.6,30.15,North,9,0.0,0.0,93,0.00,,SKC,0.00,WeatherDisplay:10.37,2013-10-27 09:12:00,
2013-10-27 02:17:00,48.5,46.6,30.15,North,9,0.0,0.0,93,0.00,,SKC,0.00,WeatherDisplay:10.37,2013-10-27 09:17:00,
2013-10-27 02:22:00,48.5,46.3,30.14,North,9,0.0,0.0,92,0.00,,SKC,0.00,WeatherDisplay:10.37,2013-10-27 09:22:00,
2013-10-27 02:27:00,48.5,46.3,30.14,North,9,0.0,0.0,92,0.00,,SKC,0.00,WeatherDisplay:10.37,2013-10-27 09:27:00,
2013-10-27 02:32:00,48.4,46.2,30.15,North,9,0.0,0.0,92,0.00,,SKC,0.00,WeatherDisplay:10.37,2013-10-27 09:32:00,
2013-10-27 02:37:00,48.4,46.2,30.14,North,9,0.0,0.0,92,0.00,,SKC,0.00,WeatherDisplay:10.37,2013-10-27 09:37:00,
2013-10-27 02:42:00,48.3,46.4,30.13,North,9,0.0,0.0,93,0.00,,SKC,0.00,WeatherDisplay:10.37,2013-10-27 09:42:00,
2013-10-27 02:47:00,48.3,46.4,30.13,North,9,0.0,0.0,93,0.00,,SKC,0.00,WeatherDisplay:10.37,2013-10-27 09:47:00,
2013-10-27 02:52:00,48.3,46.4,30.12,North,9,0.0,0.0,93,0.00,,SKC,0.00,WeatherDisplay:10.37,2013-10-27 09:52:00,
2013-10-27 02:57:00,48.3,46.4,30.13,North,9,1.1,0.0,93,0.00,CLR,SKC,0.00,WeatherDisplay:10.37,2013-10-27 09:57:00,
2013-10-27 03:02:00,48.2,46.3,30.13,North,9,1.1,0.0,93,0.00,,SKC,0.00,WeatherDisplay:10.37,2013-10-27 10:02:00,
2013-10-27 03:07:00,48.2,46.3,30.13,North,9,1.1,0.0,93,0.00,,SKC,0.00,WeatherDisplay:10.37,2013-10-27 10:07:00,
2013-10-27 03:12:00,48.2,46.3,30.13,North,9,1.1,0.0,93,0.00,,SKC,0.00,WeatherDisplay:10.37,2013-10-27 10:12:00,
2013-10-27 03:17:00,48.2,46.3,30.12,North,9,0.0,0.0,93,0.00,,SKC,0.00,WeatherDisplay:10.37,2013-10-27 10:17:00,
2013-10-27 03:22:00,48.2,46.3,30.13,North,9,0.0,0.0,93,0.00,CLR,SKC,0.00,WeatherDisplay:10.37,2013-10-27 10:22:00,
2013-10-27 03:27:00,48.3,46.4,30.12,North,9,0.0,0.0,93,0.00,,SKC,0.00,WeatherDisplay:10.37,2013-10-27 10:27:00,
2013-10-27 03:32:00,48.3,46.4,30.12,North,9,0.0,0.0,93,0.00,,SKC,0.00,WeatherDisplay:10.37,2013-10-27 10:32:00,
2013-10-27 03:37:00,48.3,46.4,30.11,North,9,0.0,0.0,93,0.00,,SKC,0.00,WeatherDisplay:10.37,2013-10-27 10:37:00,
2013-10-27 03:42:00,48.3,46.4,30.11,North,9,0.0,0.0,93,0.00,,SKC,0.00,WeatherDisplay:10.37,2013-10-27 10:42:00,
2013-10-27 03:47:00,48.3,46.4,30.11,North,9,0.0,0.0,93,0.00,,SKC,0.00,WeatherDisplay:10.37,2013-10-27 10:47:00,
2013-10-27 03:52:00,48.2,46.3,30.10,North,9,0.0,0.0,93,0.00,,SKC,0.00,WeatherDisplay:10.37,2013-10-27 10:52:00,
2013-10-27 03:57:00,48.2,46.3,30.10,North,9,0.0,0.0,93,0.00,,SKC,0.00,WeatherDisplay:10.37,2013-10-27 10:57:00,
2013-10-27 04:02:00,48.2,46.3,30.10,North,9,0.0,0.0,93,0.00,,SKC,0.00,WeatherDisplay:10.37,2013-10-27 11:02:00,
2013-10-27 04:07:00,48.2,46.3,30.10,North,9,0.0,0.0,93,0.00,CLR,SKC,0.00,WeatherDisplay:10.37,2013-10-27 11:07:00,
2013-10-27 04:12:00,48.2,46.3,30.08,North,9,0.0,0.0,93,0.00,,SKC,0.00,WeatherDisplay:10.37,2013-10-27 11:12:00,
2013-10-27 04:17:00,48.1,46.2,30.08,North,9,0.0,0.0,93,0.00,,SKC,0.00,WeatherDisplay:10.37,2013-10-27 11:17:00,
2013-10-27 04:22:00,48.1,46.2,30.09,North,9,1.1,0.0,93,0.00,,SKC,0.00,WeatherDisplay:10.37,2013-10-27 11:22:00,
2013-10-27 04:27:00,48.1,46.2,30.08,North,9,0.0,0.0,93,0.00,,SKC,0.00,WeatherDisplay:10.37,2013-10-27 11:27:00,
2013-10-27 04:32:00,48.1,46.2,30.07,North,9,0.0,0.0,93,0.00,,SKC,0.00,WeatherDisplay:10.37,2013-10-27 11:32:00,
2013-10-27 04:37:00,48.1,46.2,30.07,North,9,1.0,0.0,93,0.00,,SKC,0.00,WeatherDisplay:10.37,2013-10-27 11:37:00,
2013-10-27 04:42:00,48.1,46.2,30.08,North,9,0.0,0.0,93,0.00,CLR,SKC,0.00,WeatherDisplay:10.37,2013-10-27 11:42:00,
2013-10-27 04:47:00,48.1,46.2,30.08,North,9,0.0,0.0,93,0.00,,SKC,0.00,WeatherDisplay:10.37,2013-10-27 11:47:00,
2013-10-27 04:52:00,48.1,46.2,30.09,North,9,0.0,0.0,93,0.00,,SKC,0.00,WeatherDisplay:10.37,2013-10-27 11:52:00,
2013-10-27 04:57:00,48.1,46.5,30.09,North,9,0.0,0.0,94,0.00,,SKC,0.00,WeatherDisplay:10.37,2013-10-27 11:57:00,
2013-10-27 05:02:00,48.1,46.5,30.08,North,9,0.0,0.0,94,0.00,,SKC,0.00,WeatherDisplay:10.37,2013-10-27 12:02:00,
2013-10-27 05:07:00,48.1,46.5,30.08,North,9,0.0,0.0,94,0.00,,SKC,0.00,WeatherDisplay:10.37,2013-10-27 12:07:00,
2013-10-27 05:12:00,48.1,46.5,30.09,North,9,0.0,0.0,94,0.00,,SKC,0.00,WeatherDisplay:10.37,2013-10-27 12:12:00,
2013-10-27 05:17:00,48.1,46.5,30.08,North,9,1.1,0.0,94,0.00,CLR,SKC,0.00,WeatherDisplay:10.37,2013-10-27 12:17:00,
2013-10-27 05:22:00,48.1,46.5,30.08,North,9,0.0,0.0,94,0.00,,SKC,0.00,WeatherDisplay:10.37,2013-10-27 12:22:00,
2013-10-27 05:27:00,48.1,46.5,30.08,North,9,0.0,0.0,94,0.00,,SKC,0.00,WeatherDisplay:10.37,2013-10-27 12:27:00,
2013-10-27 05:31:00,48.1,46.5,30.08,North,9,0.0,0.0,94,0.00,,SKC,0.00,WeatherDisplay:10.37,2013-10-27 12:31:00,
2013-10-27 05:36:00,48.1,46.5,30.08,North,9,0.0,0.0,94,0.00,,SKC,0.00,WeatherDisplay:10.37,2013-10-27 12:36:00,
2013-10-27 05:41:00,48.1,46.4,30.09,North,9,0.0,0.0,94,0.00,,SKC,0.00,WeatherDisplay:10.37,2013-10-27 12:41:00,
2013-10-27 05:46:00,48.1,46.5,30.09,North,9,0.0,0.0,94,0.00,,SKC,0.00,WeatherDisplay:10.37,2013-10-27 12:46:00,
2013-10-27 05:51:00,48.1,46.5,30.08,North,9,0.0,0.0,94,0.00,,SKC,0.00,WeatherDisplay:10.37,2013-10-27 12:51:00,
2013-10-27 05:56:00,48.1,46.5,30.07,North,9,0.0,0.0,94,0.00,,SKC,0.00,WeatherDisplay:10.37,2013-10-27 12:56:00,
2013-10-27 06:01:00,48.1,46.5,30.08,North,9,0.0,0.0,94,0.00,,SKC,0.00,WeatherDisplay:10.37,2013-10-27 13:01:00,
2013-10-27 06:06:00,48.1,46.5,30.08,North,9,0.0,0.0,94,0.00,CLR,SKC,0.00,WeatherDisplay:10.37,2013-10-27 13:06:00,
2013-10-27 06:11:00,48.1,46.5,30.08,North,9,0.0,0.0,94,0.00,,SKC,0.00,WeatherDisplay:10.37,2013-10-27 13:11:00,
2013-10-27 06:16:00,48.1,46.5,30.08,North,9,0.0,0.0,94,0.00,,SKC,0.00,WeatherDisplay:10.37,2013-10-27 13:16:00,
2013-10-27 06:21:00,48.1,46.5,30.07,North,9,0.0,0.0,94,0.00,,SKC,0.00,WeatherDisplay:10.37,2013-10-27 13:21:00,
2013-10-27 06:26:00,48.0,46.4,30.06,North,9,1.1,0.0,94,0.00,,SKC,0.00,WeatherDisplay:10.37,2013-10-27 13:26:00,
2013-10-27 06:31:00,48.0,46.4,30.06,North,9,0.0,0.0,94,0.00,,SKC,0.00,WeatherDisplay:10.37,2013-10-27 13:31:00,
2013-10-27 06:36:00,48.0,46.4,30.06,North,9,0.0,0.0,94,0.00,,SKC,0.00,WeatherDisplay:10.37,2013-10-27 13:36:00,
2013-10-27 06:41:00,48.0,46.4,30.06,North,9,0.0,0.0,94,0.00,,SKC,0.00,WeatherDisplay:10.37,2013-10-27 13:41:00,
2013-10-27 06:46:00,48.0,46.4,30.05,North,9,0.0,0.0,94,0.00,,SKC,0.00,WeatherDisplay:10.37,2013-10-27 13:46:00,
2013-10-27 06:51:00,48.0,46.4,30.05,North,9,0.0,0.0,94,0.00,,SKC,0.00,WeatherDisplay:10.37,2013-10-27 13:51:00,
2013-10-27 06:56:00,48.0,46.4,30.05,North,9,1.1,0.0,94,0.00,,SKC,0.00,WeatherDisplay:10.37,2013-10-27 13:56:00,
2013-10-27 07:01:00,48.0,46.4,30.05,North,9,0.0,0.0,94,0.00,,SKC,0.00,WeatherDisplay:10.37,2013-10-27 14:01:00,
2013-10-27 07:06:00,48.0,46.4,30.06,North,9,0.0,0.0,94,0.00,,SKC,0.00,WeatherDisplay:10.37,2013-10-27 14:06:00,
2013-10-27 07:11:00,48.0,46.4,30.05,North,9,0.0,0.0,94,0.00,,SKC,0.00,WeatherDisplay:10.37,2013-10-27 14:11:00,
2013-10-27 07:16:00,48.0,46.4,30.04,North,9,0.0,0.0,94,0.00,,SKC,0.00,WeatherDisplay:10.37,2013-10-27 14:16:00,
2013-10-27 07:21:00,48.0,46.4,30.04,North,9,1.1,0.0,94,0.00,,SKC,0.00,WeatherDisplay:10.37,2013-10-27 14:21:00,
2013-10-27 07:26:00,48.0,46.4,30.02,North,9,1.1,0.0,94,0.00,,SKC,0.00,WeatherDisplay:10.37,2013-10-27 14:26:00,
2013-10-27 07:31:00,48.1,46.5,30.02,SSW,194,1.1,0.0,94,0.00,,SKC,0.00,WeatherDisplay:10.37,2013-10-27 14:31:00,
2013-10-27 07:36:00,48.1,46.5,30.02,SW,223,1.1,0.0,94,0.00,,SKC,0.00,WeatherDisplay:10.37,2013-10-27 14:36:00,
2013-10-27 07:41:00,48.1,46.5,30.01,SSW,194,1.1,0.0,94,0.00,,SKC,0.00,WeatherDisplay:10.37,2013-10-27 14:41:00,
2013-10-27 07:46:00,48.1,46.5,30.01,SSE,147,1.1,0.0,94,0.00,,SKC,0.00,WeatherDisplay:10.37,2013-10-27 14:46:00,
2013-10-27 07:51:00,48.1,46.5,30.01,South,176,1.1,1.1,94,0.00,CLR,SKC,0.00,WeatherDisplay:10.37,2013-10-27 14:51:00,
2013-10-27 07:56:00,48.2,46.6,30.01,South,180,2.0,2.0,94,0.00,,SKC,0.00,WeatherDisplay:10.37,2013-10-27 14:56:00,
2013-10-27 08:01:00,48.2,46.6,30.00,South,180,0.0,0.0,94,0.00,,SKC,0.00,WeatherDisplay:10.37,2013-10-27 15:01:00,
2013-10-27 08:06:00,48.2,47.7,30.00,SSW,200,2.0,2.0,98,0.00,,SKC,0.00,WeatherDisplay:10.37,2013-10-27 15:06:00,
2013-10-27 08:11:00,48.2,46.3,30.00,SSW,199,1.0,1.0,93,0.00,,SKC,0.00,WeatherDisplay:10.37,2013-10-27 15:11:00,
2013-10-27 08:16:00,48.3,46.4,30.00,South,173,1.1,1.1,93,0.00,,SKC,0.00,WeatherDisplay:10.37,2013-10-27 15:16:00,
2013-10-27 08:21:00,48.3,46.1,30.00,South,182,4.0,4.0,92,0.00,,SKC,0.00,WeatherDisplay:10.37,2013-10-27 15:21:00,
2013-10-27 08:26:00,48.4,46.2,30.00,SSW,196,3.5,0.0,92,0.00,CLR,SKC,0.00,WeatherDisplay:10.37,2013-10-27 15:26:00,
2013-10-27 08:31:00,48.4,46.2,29.99,South,176,6.0,6.0,92,0.00,,SKC,0.00,WeatherDisplay:10.37,2013-10-27 15:31:00,
2013-10-27 08:36:00,48.5,46.3,29.98,SW,226,7.0,7.0,92,0.00,,SKC,0.00,WeatherDisplay:10.37,2013-10-27 15:36:00,
2013-10-27 08:41:00,48.5,46.3,29.97,SW,217,5.0,5.0,92,0.00,,SKC,0.00,WeatherDisplay:10.37,2013-10-27 15:41:00,
2013-10-27 08:46:00,48.6,46.7,29.97,ESE,115,6.9,6.9,93,0.00,,SKC,0.00,WeatherDisplay:10.37,2013-10-27 15:46:00,
2013-10-27 08:51:00,48.6,46.7,29.97,SSW,194,5.8,5.8,93,0.00,,SKC,0.00,WeatherDisplay:10.37,2013-10-27 15:51:00,
2013-10-27 08:56:00,48.6,46.7,29.97,SSE,164,3.5,3.5,93,0.00,,SKC,0.00,WeatherDisplay:10.37,2013-10-27 15:56:00,
2013-10-27 09:01:00,48.6,46.7,29.96,South,173,4.0,4.0,93,0.00,CLR,SKC,0.00,WeatherDisplay:10.37,2013-10-27 16:01:00,
2013-10-27 09:06:00,48.6,46.7,29.96,SSW,198,5.0,5.0,93,0.00,,SKC,0.00,WeatherDisplay:10.37,2013-10-27 16:06:00,
2013-10-27 09:11:00,48.6,46.7,29.96,SSE,153,3.5,3.5,93,0.00,,SKC,0.00,WeatherDisplay:10.37,2013-10-27 16:11:00,
2013-10-27 09:16:00,48.6,46.7,29.97,SSW,213,8.1,8.1,93,0.00,,SKC,0.00,WeatherDisplay:10.37,2013-10-27 16:16:00,
2013-10-27 09:21:00,48.7,46.8,29.96,SSW,203,5.8,5.8,93,0.00,,SKC,0.00,WeatherDisplay:10.37,2013-10-27 16:21:00,
2013-10-27 09:26:00,48.8,46.9,29.96,SSE,167,8.1,8.1,93,0.00,,SKC,0.00,WeatherDisplay:10.37,2013-10-27 16:26:00,
2013-10-27 09:31:00,48.9,46.7,29.95,South,175,6.9,6.9,92,0.00,,SKC,0.00,WeatherDisplay:10.37,2013-10-27 16:31:00,
2013-10-27 09:36:00,49.0,47.1,29.95,South,189,4.0,4.0,93,0.00,CLR,SKC,0.00,WeatherDisplay:10.37,2013-10-27 16:36:00,
2013-10-27 09:41:00,49.1,47.2,29.94,South,191,9.2,9.2,93,0.00,,SKC,0.00,WeatherDisplay:10.37,2013-10-27 16:41:00,
2013-10-27 09:46:00,49.1,47.2,29.94,ENE,65,5.8,5.8,93,0.00,,SKC,0.00,WeatherDisplay:10.37,2013-10-27 16:46:00,
2013-10-27 09:51:00,49.2,47.3,29.94,SSW,194,8.0,8.0,93,0.00,,SKC,0.00,WeatherDisplay:10.37,2013-10-27 16:51:00,
2013-10-27 09:56:00,49.2,47.3,29.94,SW,222,6.9,6.9,93,0.01,RA,SKC,0.01,WeatherDisplay:10.37,2013-10-27 16:56:00,
2013-10-27 10:01:00,49.2,47.5,29.93,SSW,200,8.1,8.1,94,0.01,RA,SKC,0.01,WeatherDisplay:10.37,2013-10-27 17:01:00,
2013-10-27 10:06:00,49.2,47.5,29.93,South,175,8.1,8.1,94,0.01,,SKC,0.01,WeatherDisplay:10.37,2013-10-27 17:06:00,
2013-10-27 10:11:00,49.1,47.4,29.93,South,178,9.2,9.2,94,0.01,CLR,SKC,0.01,WeatherDisplay:10.37,2013-10-27 17:11:00,
2013-10-27 10:16:00,49.0,47.3,29.93,South,188,8.1,8.1,94,0.02,RA,SKC,0.02,WeatherDisplay:10.37,2013-10-27 17:16:00,
2013-10-27 10:21:00,49.1,47.7,29.92,SSE,163,9.0,9.0,95,0.02,RA,SKC,0.02,WeatherDisplay:10.37,2013-10-27 17:21:00,
2013-10-27 10:26:00,49.1,47.7,29.92,SSW,207,8.1,8.1,95,0.03,RA,SKC,0.03,WeatherDisplay:10.37,2013-10-27 17:26:00,
2013-10-27 10:31:00,49.1,47.7,29.92,SE,144,5.8,5.8,95,0.03,RA,SKC,0.03,WeatherDisplay:10.37,2013-10-27 17:31:00,
2013-10-27 10:36:00,49.1,47.7,29.92,SW,216,7.0,7.0,95,0.04,RA,SKC,0.04,WeatherDisplay:10.37,2013-10-27 17:36:00,
2013-10-27 10:41:00,49.0,47.6,29.91,SSE,157,10.0,10.0,95,0.05,RA,SKC,0.05,WeatherDisplay:10.37,2013-10-27 17:41:00,
2013-10-27 10:46:00,49.0,47.9,29.91,SSE,161,9.2,9.2,96,0.06,RA,SKC,0.06,WeatherDisplay:10.37,2013-10-27 17:46:00,
2013-10-27 10:51:00,49.1,48.0,29.91,SSW,213,8.1,8.1,96,0.06,RA,SKC,0.06,WeatherDisplay:10.37,2013-10-27 17:51:00,
2013-10-27 10:56:00,49.1,48.0,29.91,South,186,5.0,5.0,96,0.05,,SKC,0.06,WeatherDisplay:10.37,2013-10-27 17:56:00,
2013-10-27 11:01:00,49.2,48.1,29.90,South,186,7.0,7.0,96,0.05,,SKC,0.06,WeatherDisplay:10.37,2013-10-27 18:01:00,
2013-10-27 11:06:00,49.4,48.3,29.89,South,171,10.4,10.4,96,0.05,,SKC,0.06,WeatherDisplay:10.37,2013-10-27 18:06:00,
2013-10-27 11:11:00,49.7,48.6,29.89,SW,234,12.7,12.7,96,0.05,,SKC,0.06,WeatherDisplay:10.37,2013-10-27 18:11:00,
2013-10-27 11:16:00,49.9,48.8,29.88,South,187,7.0,7.0,96,0.04,,SKC,0.06,WeatherDisplay:10.37,2013-10-27 18:16:00,
2013-10-27 11:21:00,50.1,49.0,29.88,WSW,247,10.4,10.4,96,0.04,,SKC,0.06,WeatherDisplay:10.37,2013-10-27 18:21:00,
2013-10-27 11:26:00,50.0,48.6,29.88,SSE,165,7.0,7.0,95,0.03,,SKC,0.06,WeatherDisplay:10.37,2013-10-27 18:26:00,
2013-10-27 11:31:00,49.9,48.5,29.88,SE,142,11.5,11.5,95,0.03,,SKC,0.06,WeatherDisplay:10.37,2013-10-27 18:31:00,
2013-10-27 11:36:00,49.9,48.5,29.88,SSW,208,9.0,9.0,95,0.02,,SKC,0.06,WeatherDisplay:10.37,2013-10-27 18:36:00,
2013-10-27 11:41:00,49.8,48.4,29.87,SW,230,9.2,9.2,95,0.01,,SKC,0.06,WeatherDisplay:10.37,2013-10-27 18:41:00,
2013-10-27 11:46:00,50.1,49.0,29.86,WSW,244,13.0,13.0,96,0.00,,SKC,0.06,WeatherDisplay:10.37,2013-10-27 18:46:00,
2013-10-27 11:51:00,50.3,48.9,29.86,SSW,211,13.8,13.8,95,0.00,,SKC,0.06,WeatherDisplay:10.37,2013-10-27 18:51:00,
2013-10-27 11:56:00,50.8,49.7,29.87,SSE,163,5.8,5.8,96,0.00,CLR,SKC,0.06,WeatherDisplay:10.37,2013-10-27 18:56:00,
2013-10-27 12:01:00,51.2,50.1,29.86,ESE,122,5.0,5.0,96,0.00,,SKC,0.06,WeatherDisplay:10.37,2013-10-27 19:01:00,
2013-10-27 12:06:00,51.3,49.6,29.86,ESE,123,11.5,11.5,94,0.00,,SKC,0.06,WeatherDisplay:10.37,2013-10-27 19:06:00,
2013-10-27 12:11:00,51.1,49.4,29.86,SE,134,8.1,8.1,94,0.00,,SKC,0.06,WeatherDisplay:10.37,2013-10-27 19:11:00,
2013-10-27 12:16:00,51.1,49.4,29.85,South,170,4.6,4.6,94,0.00,,SKC,0.06,WeatherDisplay:10.37,2013-10-27 19:16:00,
2013-10-27 12:21:00,51.3,49.9,29.85,WSW,238,8.0,8.0,95,0.00,,SKC,0.06,WeatherDisplay:10.37,2013-10-27 19:21:00,
2013-10-27 12:26:00,51.7,50.3,29.84,South,171,6.9,6.9,95,0.00,,SKC,0.06,WeatherDisplay:10.37,2013-10-27 19:26:00,
2013-10-27 12:31:00,52.1,50.7,29.85,SE,132,4.6,4.6,95,0.00,CLR,SKC,0.06,WeatherDisplay:10.37,2013-10-27 19:31:00,
2013-10-27 12:36:00,52.3,50.3,29.84,SSE,163,4.6,4.6,93,0.00,,SKC,0.06,WeatherDisplay:10.37,2013-10-27 19:36:00,
2013-10-27 12:41:00,52.4,50.4,29.84,SW,218,10.0,10.0,93,0.00,,SKC,0.06,WeatherDisplay:10.37,2013-10-27 19:41:00,
2013-10-27 12:46:00,52.4,50.4,29.83,SSW,205,6.0,6.0,93,0.00,,SKC,0.06,WeatherDisplay:10.37,2013-10-27 19:46:00,
2013-10-27 12:51:00,52.4,50.1,29.83,South,175,6.0,6.0,92,0.00,,SKC,0.06,WeatherDisplay:10.37,2013-10-27 19:51:00,
2013-10-27 12:56:00,52.3,50.3,29.83,SW,223,5.8,5.8,93,0.01,RA,SKC,0.07,WeatherDisplay:10.37,2013-10-27 19:56:00,
2013-10-27 13:01:00,52.3,50.6,29.83,SSW,212,4.6,4.6,94,0.01,RA,SKC,0.07,WeatherDisplay:10.37,2013-10-27 20:01:00,
2013-10-27 13:06:00,52.4,50.7,29.82,SW,234,3.5,3.5,94,0.02,RA,SKC,0.09,WeatherDisplay:10.37,2013-10-27 20:06:00,
2013-10-27 13:11:00,52.4,50.7,29.83,SW,234,0.0,0.0,94,0.03,RA,SKC,0.10,WeatherDisplay:10.37,2013-10-27 20:11:00,
2013-10-27 13:16:00,52.4,50.7,29.82,SW,234,1.0,0.0,94,0.07,RA,SKC,0.14,WeatherDisplay:10.37,2013-10-27 20:16:00,
2013-10-27 13:21:00,52.4,50.7,29.82,SW,234,0.0,0.0,94,0.11,RA,SKC,0.17,WeatherDisplay:10.37,2013-10-27 20:21:00,
2013-10-27 13:26:00,52.3,50.9,29.83,NE,40,5.0,5.0,95,0.15,RA,SKC,0.22,WeatherDisplay:10.37,2013-10-27 20:26:00,
2013-10-27 13:31:00,52.0,50.0,29.82,NNW,328,3.5,3.5,93,0.16,RA,SKC,0.22,WeatherDisplay:10.37,2013-10-27 20:31:00,
2013-10-27 13:36:00,51.9,49.9,29.82,NNW,329,4.0,4.0,93,0.16,RA,SKC,0.22,WeatherDisplay:10.37,2013-10-27 20:36:00,
2013-10-27 13:41:00,52.1,50.7,29.83,North,350,2.3,0.0,95,0.16,CLR,SKC,0.22,WeatherDisplay:10.37,2013-10-27 20:41:00,
2013-10-27 13:46:00,52.4,51.0,29.83,NNE,23,4.6,0.0,95,0.16,,SKC,0.22,WeatherDisplay:10.37,2013-10-27 20:46:00,
2013-10-27 13:51:00,52.6,51.2,29.83,NNE,23,0.0,0.0,95,0.16,,SKC,0.22,WeatherDisplay:10.37,2013-10-27 20:51:00,
2013-10-27 13:56:00,52.7,51.3,29.83,North,351,1.1,0.0,95,0.15,,SKC,0.22,WeatherDisplay:10.37,2013-10-27 20:56:00,
2013-10-27 14:01:00,52.7,50.7,29.82,NNW,331,6.0,6.0,93,0.15,,SKC,0.22,WeatherDisplay:10.37,2013-10-27 21:01:00,
2013-10-27 14:06:00,53.0,51.0,29.82,NNW,348,4.0,4.0,93,0.14,,SKC,0.22,WeatherDisplay:10.37,2013-10-27 21:06:00,
2013-10-27 14:11:00,53.3,51.3,29.82,NNE,21,4.0,4.0,93,0.13,,SKC,0.22,WeatherDisplay:10.37,2013-10-27 21:11:00,
2013-10-27 14:16:00,53.8,51.5,29.82,NNW,346,6.9,6.9,92,0.09,,SKC,0.22,WeatherDisplay:10.37,2013-10-27 21:16:00,
2013-10-27 14:21:00,54.3,51.4,29.81,NW,321,9.2,9.2,90,0.05,,SKC,0.22,WeatherDisplay:10.37,2013-10-27 21:21:00,
2013-10-27 14:26:00,54.5,50.7,29.82,ENE,59,10.0,10.0,87,0.01,,SKC,0.22,WeatherDisplay:10.37,2013-10-27 21:26:00,
2013-10-27 14:31:00,54.2,49.8,29.82,NNE,17,11.5,11.5,85,0.00,,SKC,0.22,WeatherDisplay:10.37,2013-10-27 21:31:00,
2013-10-27 14:36:00,53.9,49.8,29.82,NNE,19,6.0,6.0,86,0.00,,SKC,0.22,WeatherDisplay:10.37,2013-10-27 21:36:00,
2013-10-27 14:41:00,54.1,50.0,29.82,NNE,19,10.4,10.4,86,0.00,,SKC,0.22,WeatherDisplay:10.37,2013-10-27 21:41:00,
2013-10-27 14:46:00,54.4,49.3,29.82,North,360,9.2,9.2,83,0.00,,SKC,0.22,WeatherDisplay:10.37,2013-10-27 21:46:00,
2013-10-27 14:51:00,54.4,49.3,29.82,NNW,327,11.5,11.5,83,0.00,,SKC,0.22,WeatherDisplay:10.37,2013-10-27 21:51:00,
2013-10-27 14:56:00,54.4,49.3,29.82,NE,38,10.4,10.4,83,0.00,,SKC,0.22,WeatherDisplay:10.37,2013-10-27 21:56:00,
2013-10-27 15:01:00,54.6,49.5,29.82,NE,39,8.1,8.1,83,0.00,,SKC,0.22,WeatherDisplay:10.37,2013-10-27 22:01:00,
2013-10-27 15:06:00,55.0,50.3,29.82,North,9,9.2,9.2,84,0.00,,SKC,0.22,WeatherDisplay:10.37,2013-10-27 22:06:00,
2013-10-27 15:11:00,55.0,49.9,29.82,NE,38,8.1,8.1,83,0.00,,SKC,0.22,WeatherDisplay:10.37,2013-10-27 22:11:00,
2013-10-27 15:16:00,54.9,49.8,29.82,NNE,20,4.6,4.6,83,0.00,,SKC,0.22,WeatherDisplay:10.37,2013-10-27 22:16:00,
2013-10-27 15:21:00,54.6,49.2,29.82,NNW,333,6.0,6.0,82,0.00,,SKC,0.22,WeatherDisplay:10.37,2013-10-27 22:21:00,
2013-10-27 15:26:00,54.3,49.6,29.82,NE,36,9.0,9.0,84,0.00,CLR,SKC,0.22,WeatherDisplay:10.37,2013-10-27 22:26:00,
2013-10-27 15:31:00,54.2,49.1,29.82,NNW,327,8.0,8.0,83,0.00,,SKC,0.22,WeatherDisplay:10.37,2013-10-27 22:31:00,
2013-10-27 15:36:00,54.2,49.1,29.82,NNE,24,6.9,6.9,83,0.00,,SKC,0.22,WeatherDisplay:10.37,2013-10-27 22:36:00,
2013-10-27 15:41:00,54.5,48.8,29.82,North,5,9.2,9.2,81,0.00,,SKC,0.22,WeatherDisplay:10.37,2013-10-27 22:41:00,
2013-10-27 15:46:00,54.8,48.7,29.83,North,5,7.0,7.0,80,0.00,,SKC,0.22,WeatherDisplay:10.37,2013-10-27 22:46:00,
2013-10-27 15:51:00,55.1,49.0,29.83,North,360,8.1,8.1,80,0.00,,SKC,0.22,WeatherDisplay:10.37,2013-10-27 22:51:00,
2013-10-27 15:56:00,55.2,48.5,29.83,NW,324,11.5,11.5,78,0.00,,SKC,0.22,WeatherDisplay:10.37,2013-10-27 22:56:00,
2013-10-27 16:01:00,55.3,48.6,29.83,NW,318,7.0,7.0,78,0.00,CLR,SKC,0.22,WeatherDisplay:10.37,2013-10-27 23:01:00,
2013-10-27 16:06:00,55.1,48.0,29.83,NNW,336,10.4,10.4,77,0.00,,SKC,0.22,WeatherDisplay:10.37,2013-10-27 23:06:00,
2013-10-27 16:11:00,55.0,47.6,29.83,NE,34,9.2,9.2,76,0.00,,SKC,0.22,WeatherDisplay:10.37,2013-10-27 23:11:00,
2013-10-27 16:16:00,55.0,47.6,29.83,North,355,9.2,9.2,76,0.00,,SKC,0.22,WeatherDisplay:10.37,2013-10-27 23:16:00,
2013-10-27 16:21:00,55.0,47.2,29.83,NNW,332,11.5,11.5,75,0.00,,SKC,0.22,WeatherDisplay:10.37,2013-10-27 23:21:00,
2013-10-27 16:26:00,55.2,47.4,29.83,NNE,29,11.0,11.0,75,0.00,,SKC,0.22,WeatherDisplay:10.37,2013-10-27 23:26:00,
2013-10-27 16:31:00,55.5,47.3,29.83,NNW,333,11.5,11.5,74,0.00,,SKC,0.22,WeatherDisplay:10.37,2013-10-27 23:31:00,
2013-10-27 16:36:00,55.8,47.6,29.82,North,355,14.0,14.0,74,0.00,,SKC,0.22,WeatherDisplay:10.37,2013-10-27 23:36:00,
2013-10-27 16:41:00,55.7,47.2,29.83,North,9,11.5,11.5,73,0.00,,SKC,0.22,WeatherDisplay:10.37,2013-10-27 23:41:00,
2013-10-27 16:46:00,55.7,47.2,29.83,NE,35,10.4,10.4,73,0.00,,SKC,0.22,WeatherDisplay:10.37,2013-10-27 23:46:00,
2013-10-27 16:51:00,55.5,47.0,29.83,NNW,333,8.1,8.1,73,0.00,,SKC,0.22,WeatherDisplay:10.37,2013-10-27 23:51:00,
2013-10-27 16:56:00,55.5,47.3,29.83,North,355,9.0,9.0,74,0.00,,SKC,0.22,WeatherDisplay:10.37,2013-10-27 23:56:00,
2013-10-27 17:01:00,55.5,47.3,29.83,WNW,289,9.2,9.2,74,0.00,,SKC,0.22,WeatherDisplay:10.37,2013-10-28 00:01:00,
2013-10-27 17:06:00,55.3,47.2,29.83,NE,35,4.6,4.6,74,0.00,,SKC,0.22,WeatherDisplay:10.37,2013-10-28 00:06:00,
2013-10-27 17:11:00,55.2,46.7,29.83,NNE,12,10.4,10.4,73,0.00,,SKC,0.22,WeatherDisplay:10.37,2013-10-28 00:11:00,
2013-10-27 17:16:00,55.0,46.9,29.83,NNE,20,9.2,9.2,74,0.00,,SKC,0.22,WeatherDisplay:10.37,2013-10-28 00:16:00,
2013-10-27 17:21:00,54.8,46.7,29.83,NNE,13,6.0,6.0,74,0.00,,SKC,0.22,WeatherDisplay:10.37,2013-10-28 00:21:00,
2013-10-27 17:26:00,54.6,46.8,29.83,NE,36,5.0,5.0,75,0.00,,SKC,0.22,WeatherDisplay:10.37,2013-10-28 00:26:00,
2013-10-27 17:31:00,54.5,46.7,29.83,NNW,339,5.8,5.8,75,0.00,,SKC,0.22,WeatherDisplay:10.37,2013-10-28 00:31:00,
2013-10-27 17:36:00,54.3,46.5,29.83,NNW,336,7.0,7.0,75,0.00,,SKC,0.22,WeatherDisplay:10.37,2013-10-28 00:36:00,
2013-10-27 17:41:00,54.1,46.7,29.83,NW,309,3.5,3.5,76,0.00,,SKC,0.22,WeatherDisplay:10.37,2013-10-28 00:41:00,
2013-10-27 17:46:00,54.0,46.3,29.83,NNE,22,3.5,3.5,75,0.00,CLR,SKC,0.22,WeatherDisplay:10.37,2013-10-28 00:46:00,
2013-10-27 17:51:00,53.8,46.4,29.83,North,5,2.3,2.3,76,0.00,,SKC,0.22,WeatherDisplay:10.37,2013-10-28 00:51:00,
2013-10-27 17:56:00,53.5,46.1,29.83,NNW,343,6.0,6.0,76,0.00,,SKC,0.22,WeatherDisplay:10.37,2013-10-28 00:56:00,
2013-10-27 18:01:00,53.3,45.9,29.83,NNW,335,2.3,2.3,76,0.00,,SKC,0.22,WeatherDisplay:10.37,2013-10-28 01:01:00,
2013-10-27 18:06:00,53.2,45.8,29.83,NW,311,8.0,8.0,76,0.00,,SKC,0.22,WeatherDisplay:10.37,2013-10-28 01:06:00,
2013-10-27 18:11:00,53.0,45.6,29.83,North,5,2.3,0.0,76,0.00,,SKC,0.22,WeatherDisplay:10.37,2013-10-28 01:11:00,
2013-10-27 18:16:00,52.8,45.4,29.83,NW,325,3.0,3.0,76,0.00,,SKC,0.22,WeatherDisplay:10.37,2013-10-28 01:16:00,
2013-10-27 18:21:00,52.6,45.6,29.83,East,80,3.0,3.0,77,0.00,CLR,SKC,0.22,WeatherDisplay:10.37,2013-10-28 01:21:00,
2013-10-27 18:26:00,52.5,45.5,29.83,NNW,328,3.5,3.5,77,0.00,,SKC,0.22,WeatherDisplay:10.37,2013-10-28 01:26:00,
2013-10-27 18:31:00,52.3,45.3,29.83,North,355,4.6,4.6,77,0.00,,SKC,0.22,WeatherDisplay:10.37,2013-10-28 01:31:00,
2013-10-27 18:36:00,52.1,45.1,29.83,NNW,338,4.6,4.6,77,0.00,,SKC,0.22,WeatherDisplay:10.37,2013-10-28 01:36:00,
2013-10-27 18:41:00,52.0,45.4,29.83,North,355,1.1,1.1,78,0.00,,SKC,0.22,WeatherDisplay:10.37,2013-10-28 01:41:00,
2013-10-27 18:46:00,51.9,45.3,29.83,North,355,4.0,4.0,78,0.00,,SKC,0.22,WeatherDisplay:10.37,2013-10-28 01:46:00,
2013-10-27 18:51:00,51.8,45.2,29.83,North,350,4.0,4.0,78,0.00,,SKC,0.22,WeatherDisplay:10.37,2013-10-28 01:51:00,
2013-10-27 18:56:00,51.7,45.4,29.83,NNW,332,5.0,5.0,79,0.00,CLR,SKC,0.22,WeatherDisplay:10.37,2013-10-28 01:56:00,
2013-10-27 19:01:00,51.7,45.4,29.83,NNW,339,3.0,3.0,79,0.00,,SKC,0.22,WeatherDisplay:10.37,2013-10-28 02:01:00,
2013-10-27 19:06:00,51.6,45.3,29.83,NNW,344,2.3,2.3,79,0.00,,SKC,0.22,WeatherDisplay:10.37,2013-10-28 02:06:00,
2013-10-27 19:11:00,51.6,45.3,29.83,North,349,4.0,4.0,79,0.00,,SKC,0.22,WeatherDisplay:10.37,2013-10-28 02:11:00,
2013-10-27 19:16:00,51.5,45.2,29.83,NNW,340,5.8,5.8,79,0.00,,SKC,0.22,WeatherDisplay:10.37,2013-10-28 02:16:00,
2013-10-27 19:21:00,51.4,45.1,29.83,NNE,13,2.0,2.0,79,0.00,,SKC,0.22,WeatherDisplay:10.37,2013-10-28 02:21:00,
2013-10-27 19:26:00,51.3,45.0,29.83,North,5,5.0,5.0,79,0.00,,SKC,0.22,WeatherDisplay:10.37,2013-10-28 02:26:00,
2013-10-27 19:31:00,51.3,45.0,29.83,NE,34,4.6,4.6,79,0.00,CLR,SKC,0.22,WeatherDisplay:10.37,2013-10-28 02:31:00,
2013-10-27 19:36:00,51.2,45.2,29.83,NNE,24,1.1,1.1,80,0.00,,SKC,0.22,WeatherDisplay:10.37,2013-10-28 02:36:00,
2013-10-27 19:41:00,51.0,45.0,29.83,NNE,24,1.1,1.1,80,0.00,,SKC,0.22,WeatherDisplay:10.37,2013-10-28 02:41:00,
2013-10-27 19:46:00,50.9,44.9,29.83,NNE,24,0.0,0.0,80,0.00,,SKC,0.22,WeatherDisplay:10.37,2013-10-28 02:46:00,
2013-10-27 19:51:00,50.7,45.1,29.83,North,355,1.1,1.1,81,0.00,,SKC,0.22,WeatherDisplay:10.37,2013-10-28 02:51:00,
2013-10-27 19:56:00,50.6,45.0,29.83,NNW,344,3.5,3.5,81,0.00,,SKC,0.22,WeatherDisplay:10.37,2013-10-28 02:56:00,
2013-10-27 20:01:00,50.5,44.9,29.83,NNE,30,1.1,1.1,81,0.00,,SKC,0.22,WeatherDisplay:10.37,2013-10-28 03:01:00,
2013-10-27 20:06:00,50.5,45.2,29.83,NNE,30,1.1,1.1,82,0.00,CLR,SKC,0.22,WeatherDisplay:10.37,2013-10-28 03:06:00,
2013-10-27 20:11:00,50.5,44.9,29.83,NNW,335,3.5,3.5,81,0.00,,SKC,0.22,WeatherDisplay:10.37,2013-10-28 03:11:00,
2013-10-27 20:16:00,50.6,45.0,29.83,North,11,1.1,1.1,81,0.00,,SKC,0.22,WeatherDisplay:10.37,2013-10-28 03:16:00,
2013-10-27 20:21:00,50.6,45.0,29.82,North,11,1.1,0.0,81,0.00,,SKC,0.22,WeatherDisplay:10.37,2013-10-28 03:21:00,
2013-10-27 20:26:00,50.5,44.9,29.82,North,11,1.0,1.0,81,0.00,,SKC,0.22,WeatherDisplay:10.37,2013-10-28 03:26:00,
2013-10-27 20:31:00,50.4,44.8,29.83,North,11,2.3,2.3,81,0.00,,SKC,0.22,WeatherDisplay:10.37,2013-10-28 03:31:00,
2013-10-27 20:36:00,50.3,44.7,29.83,NNE,29,5.0,5.0,81,0.00,,SKC,0.22,WeatherDisplay:10.37,2013-10-28 03:36:00,
2013-10-27 20:41:00,50.3,45.0,29.83,NNE,23,2.3,2.3,82,0.00,,SKC,0.22,WeatherDisplay:10.37,2013-10-28 03:41:00,
2013-10-27 20:46:00,50.2,44.9,29.83,NNE,23,4.0,4.0,82,0.00,,SKC,0.22,WeatherDisplay:10.37,2013-10-28 03:46:00,
2013-10-27 20:51:00,50.0,44.7,29.83,NNE,23,2.0,2.0,82,0.00,,SKC,0.22,WeatherDisplay:10.37,2013-10-28 03:51:00,
2013-10-27 20:56:00,49.8,44.5,29.83,NNE,23,0.0,0.0,82,0.00,,SKC,0.22,WeatherDisplay:10.37,2013-10-28 03:56:00,
2013-10-27 21:01:00,49.6,44.7,29.83,NNE,23,0.0,1.0,83,0.00,CLR,SKC,0.22,WeatherDisplay:10.37,2013-10-28 04:01:00,
2013-10-27 21:03:00,49.5,44.6,29.83,NNE,23,1.1,0.0,83,0.00,,SKC,0.22,WeatherDisplay:10.37,2013-10-28 04:03:00,
2013-10-27 21:05:00,49.4,44.5,29.83,NNE,23,1.1,0.0,83,0.00,,SKC,0.22,WeatherDisplay:10.37,2013-10-28 04:05:00,
2013-10-27 21:06:00,49.4,44.5,29.83,NNE,23,0.0,0.0,83,0.00,,SKC,0.22,WeatherDisplay:10.37,2013-10-28 04:06:00,
2013-10-27 21:10:00,49.3,44.4,29.83,NNE,23,2.0,2.0,83,0.00,,SKC,0.22,WeatherDisplay:10.37,2013-10-28 04:10:00,
2013-10-27 21:15:00,49.2,44.3,29.83,NNE,23,2.3,0.0,83,0.00,,SKC,0.22,WeatherDisplay:10.37,2013-10-28 04:15:00,
2013-10-27 21:20:00,49.1,44.2,29.83,NNE,23,0.0,0.0,83,0.00,,SKC,0.22,WeatherDisplay:10.37,2013-10-28 04:20:00,
2013-10-27 21:25:00,48.9,44.3,29.83,NNE,23,0.0,0.0,84,0.00,,SKC,0.22,WeatherDisplay:10.37,2013-10-28 04:25:00,
2013-10-27 21:30:00,48.8,44.2,29.83,NNE,23,0.0,0.0,84,0.00,,SKC,0.22,WeatherDisplay:10.37,2013-10-28 04:30:00,
2013-10-27 21:35:00,48.6,44.0,29.83,NNE,23,0.0,0.0,84,0.00,,SKC,0.22,WeatherDisplay:10.37,2013-10-28 04:35:00,
2013-10-27 21:40:00,48.3,44.0,29.83,NNE,23,0.0,0.0,85,0.00,,SKC,0.22,WeatherDisplay:10.37,2013-10-28 04:40:00,
2013-10-27 21:45:00,48.0,43.7,29.83,NNE,23,0.0,0.0,85,0.00,,SKC,0.22,WeatherDisplay:10.37,2013-10-28 04:45:00,
2013-10-27 21:50:00,47.7,43.7,29.83,NNE,23,0.0,0.0,86,0.00,,SKC,0.22,WeatherDisplay:10.37,2013-10-28 04:50:00,
2013-10-27 21:55:00,47.5,43.5,29.83,NNE,23,0.0,0.0,86,0.00,,SKC,0.22,WeatherDisplay:10.37,2013-10-28 04:55:00,
2013-10-27 22:00:00,47.2,43.5,29.83,NNE,23,0.0,0.0,87,0.00,,SKC,0.22,WeatherDisplay:10.37,2013-10-28 05:00:00,
2013-10-27 22:05:00,47.0,43.3,29.83,NNE,23,0.0,0.0,87,0.00,CLR,SKC,0.22,WeatherDisplay:10.37,2013-10-28 05:05:00,
2013-10-27 22:10:00,46.7,43.3,29.83,NNE,23,0.0,0.0,88,0.00,,SKC,0.22,WeatherDisplay:10.37,2013-10-28 05:10:00,
2013-10-27 22:15:00,46.5,43.1,29.83,NNE,23,0.0,0.0,88,0.00,,SKC,0.22,WeatherDisplay:10.37,2013-10-28 05:15:00,
2013-10-27 22:20:00,46.3,43.2,29.83,NNE,23,0.0,0.0,89,0.00,,SKC,0.22,WeatherDisplay:10.37,2013-10-28 05:20:00,
2013-10-27 22:25:00,46.1,43.0,29.83,NNE,23,0.0,0.0,89,0.00,,SKC,0.22,WeatherDisplay:10.37,2013-10-28 05:25:00,
2013-10-27 22:30:00,45.8,42.7,29.83,NNE,23,0.0,0.0,89,0.00,,SKC,0.22,WeatherDisplay:10.37,2013-10-28 05:30:00,
2013-10-27 22:35:00,45.6,42.5,29.83,NNE,23,0.0,0.0,89,0.00,,SKC,0.22,WeatherDisplay:10.37,2013-10-28 05:35:00,
2013-10-27 22:40:00,45.3,42.2,29.83,NNE,23,0.0,0.0,89,0.00,,SKC,0.22,WeatherDisplay:10.37,2013-10-28 05:40:00,
2013-10-27 22:45:00,45.1,42.3,29.83,NNE,23,0.0,0.0,90,0.00,,SKC,0.22,WeatherDisplay:10.37,2013-10-28 05:45:00,
2013-10-27 22:50:00,44.9,42.4,29.83,NNE,23,0.0,0.0,91,0.00,,SKC,0.22,WeatherDisplay:10.37,2013-10-28 05:50:00,
2013-10-27 22:55:00,44.7,42.2,29.83,NNE,23,0.0,0.0,91,0.00,,SKC,0.22,WeatherDisplay:10.37,2013-10-28 05:55:00,
2013-10-27 23:00:00,44.5,42.0,29.83,NNE,23,0.0,0.0,91,0.00,,SKC,0.22,WeatherDisplay:10.37,2013-10-28 06:00:00,
2013-10-27 23:05:00,44.3,41.6,29.83,NNE,23,0.0,0.0,90,0.00,,SKC,0.22,WeatherDisplay:10.37,2013-10-28 06:05:00,
2013-10-27 23:10:00,44.0,41.5,29.83,NNE,23,0.0,0.0,91,0.00,,SKC,0.22,WeatherDisplay:10.37,2013-10-28 06:10:00,
2013-10-27 23:15:00,43.9,41.4,29.83,NNE,23,0.0,0.0,91,0.00,,SKC,0.22,WeatherDisplay:10.37,2013-10-28 06:15:00,
2013-10-27 23:20:00,43.7,41.5,29.83,NNE,23,0.0,0.0,92,0.00,,SKC,0.22,WeatherDisplay:10.37,2013-10-28 06:20:00,
2013-10-27 23:25:00,43.4,40.9,29.83,NNE,23,0.0,0.0,91,0.00,,SKC,0.22,WeatherDisplay:10.37,2013-10-28 06:25:00,
2013-10-27 23:30:00,43.3,40.8,29.83,NNE,23,0.0,0.0,91,0.00,,SKC,0.22,WeatherDisplay:10.37,2013-10-28 06:30:00,
2013-10-27 23:35:00,43.0,40.8,29.83,NNE,23,0.0,0.0,92,0.00,,SKC,0.22,WeatherDisplay:10.37,2013-10-28 06:35:00,
2013-10-27 23:40:00,42.9,40.7,29.83,NNE,23,0.0,0.0,92,0.00,,SKC,0.22,WeatherDisplay:10.37,2013-10-28 06:40:00,
2013-10-27 23:45:00,42.8,40.9,29.83,NNE,23,0.0,0.0,93,0.00,,SKC,0.22,WeatherDisplay:10.37,2013-10-28 06:45:00,
2013-10-27 23:50:00,42.9,41.3,29.83,NNE,23,0.0,0.0,94,0.00,,SKC,0.22,WeatherDisplay:10.37,2013-10-28 06:50:00,
2013-10-27 23:55:00,42.9,41.3,29.83,NNE,23,0.0,0.0,94,0.00,,SKC,0.22,WeatherDisplay:10.37,2013-10-28 06:55:00,